Date String (YYYY-MM-DD hh:mm:ss) UTC,Instrument flags,Ambient pressure (hPa),Sample flow (lpm),Bypass flow (lpm),Sample temperature (°C),Ambient temperature (°C),ASC tube jacket temperature (°C),LED temperature (°C),Box temperature (°C),Sample RH (%),Span deviation,Mass concentration (μg/m³),Mass concentration (μg/m³),Mass concentration (μg/m³)
DateTimeUTC,F1_M11,P_M11,Q1_M11,Q2_M11,T1_M11,T2_M11,T3_M11,T4_M11,T5_M11,U1_M11,ZSPAN_M11,X0_M11,X2_M11,X1_M11
2022-05-20 21:00:00,,0822.4,4.99,0.00,23.8,22.7,00.0,32.8,25.6,19.5,0000.0,0000.96,0000.80,0000.77
2022-05-20 21:01:00,,0822.4,5.01,0.00,23.8,22.7,00.0,32.8,25.7,19.5,0000.0,0000.95,0000.79,0000.76
2022-05-20 21:02:00,,0822.4,4.99,0.00,23.8,22.7,00.0,32.8,25.7,19.4,0000.0,0000.98,0000.80,0000.76
2022-05-20 21:03:00,,0822.4,5.00,0.00,23.8,22.7,00.0,32.8,25.7,19.4,0000.0,0000.99,0000.80,0000.76
2022-05-20 21:04:00,,0822.4,5.00,0.00,23.8,22.7,00.0,32.8,25.7,19.4,0000.0,0000.96,0000.78,0000.75
2022-05-20 21:05:00,,0822.4,5.01,0.00,23.8,22.7,00.0,32.8,25.7,19.4,0000.0,0000.92,0000.74,0000.71
2022-05-20 21:06:00,,0822.4,5.00,0.00,23.8,22.8,00.0,32.8,25.7,19.4,0000.0,0000.87,0000.70,0000.67
2022-05-20 21:07:00,,0822.4,5.00,0.00,23.8,22.8,00.0,32.8,25.7,19.4,0000.0,0000.84,0000.67,0000.64
2022-05-20 21:08:00,,0822.5,5.00,0.00,23.8,22.8,00.0,32.8,25.7,19.4,0000.0,0000.79,0000.63,0000.61
2022-05-20 21:09:00,,0822.6,5.00,0.00,23.8,22.8,00.0,32.8,25.7,19.4,0000.0,0000.76,0000.61,0000.59
2022-05-20 21:10:00,,0822.6,5.00,0.00,23.8,22.8,00.0,32.8,25.7,19.4,0000.0,0000.75,0000.59,0000.57
2022-05-20 21:11:00,,0822.5,5.00,0.00,23.8,22.8,00.0,32.8,25.6,19.4,0000.0,0000.73,0000.57,0000.54
2022-05-20 21:12:00,,0822.6,4.99,0.00,23.8,22.7,00.0,32.8,25.6,19.4,0000.0,0000.70,0000.55,0000.53
2022-05-20 21:13:00,,0822.4,5.01,0.00,23.8,22.7,00.0,32.8,25.6,19.4,0000.0,0000.65,0000.52,0000.51
2022-05-20 21:14:00,,0822.4,4.99,0.00,23.8,22.7,00.0,32.8,25.6,19.3,0000.0,0000.62,0000.50,0000.49
2022-05-20 21:15:00,,0822.4,5.01,0.00,23.8,22.7,00.0,32.8,25.6,19.3,0000.0,0000.60,0000.49,0000.48
2022-05-20 21:16:00,,0822.5,4.99,0.00,23.8,22.7,00.0,32.8,25.6,19.3,0000.0,0000.61,0000.49,0000.48
2022-05-20 21:17:00,,0822.5,5.00,0.00,23.8,22.7,00.0,32.8,25.6,19.3,0000.0,0000.61,0000.50,0000.49
2022-05-20 21:18:00,,0822.6,5.01,0.00,23.8,22.7,00.0,32.8,25.6,19.3,0000.0,0000.61,0000.50,0000.49
2022-05-20 21:19:00,,0822.6,5.00,0.00,23.7,22.6,00.0,32.8,25.5,19.3,0000.0,0000.60,0000.49,0000.48
2022-05-20 21:20:00,,0822.6,5.00,0.00,23.7,22.5,00.0,32.7,25.5,19.3,0000.0,0000.59,0000.48,0000.47
2022-05-20 21:21:00,,0822.7,4.99,0.00,23.7,22.5,00.0,32.7,25.5,19.3,0000.0,0000.57,0000.47,0000.46
2022-05-20 21:22:00,,0822.6,4.99,0.00,23.7,22.5,00.0,32.7,25.5,19.3,0000.0,0000.55,0000.46,0000.46
2022-05-20 21:23:00,,0822.7,5.00,0.00,23.7,22.6,00.0,32.7,25.5,19.3,0000.0,0000.53,0000.44,0000.44
2022-05-20 21:24:00,,0822.6,5.00,0.00,23.7,22.6,00.0,32.7,25.5,19.3,0000.0,0000.50,0000.42,0000.42
2022-05-20 21:25:00,,0822.7,4.99,0.00,23.7,22.6,00.0,32.7,25.5,19.4,0000.0,0000.49,0000.40,0000.40
2022-05-20 21:26:00,,0822.7,5.01,0.00,23.7,22.6,00.0,32.7,25.5,19.4,0000.0,0000.48,0000.40,0000.40
2022-05-20 21:27:00,,0822.7,5.00,0.00,23.7,22.6,00.0,32.7,25.5,19.4,0000.0,0000.49,0000.40,0000.39
2022-05-20 21:28:00,,0822.8,5.00,0.00,23.6,22.6,00.0,32.7,25.5,19.4,0000.0,0000.52,0000.42,0000.40
2022-05-20 21:29:00,,0822.8,5.00,0.00,23.6,22.6,00.0,32.7,25.5,19.4,0000.0,0000.54,0000.44,0000.42
2022-05-20 21:30:00,,0822.7,4.99,0.00,23.6,22.6,00.0,32.7,25.5,19.4,0000.0,0000.56,0000.46,0000.44
2022-05-20 21:31:00,,0822.8,5.01,0.00,23.6,22.5,00.0,32.7,25.5,19.4,0000.0,0000.62,0000.50,0000.47
2022-05-20 21:32:00,,0822.8,5.01,0.00,23.6,22.5,00.0,32.6,25.4,19.4,0000.0,0000.66,0000.53,0000.49
2022-05-20 21:33:00,,0822.8,5.00,0.00,23.6,22.5,00.0,32.6,25.4,19.4,0000.0,0000.68,0000.55,0000.51
2022-05-20 21:34:00,,0822.7,5.01,0.00,23.6,22.5,00.0,32.6,25.4,19.5,0000.0,0000.71,0000.57,0000.54
2022-05-20 21:35:00,,0822.8,5.00,0.00,23.6,22.5,00.0,32.6,25.4,19.5,0000.0,0000.74,0000.60,0000.56
2022-05-20 21:36:00,,0823.0,5.00,0.00,23.6,22.5,00.0,32.6,25.4,19.5,0000.0,0000.77,0000.62,0000.58
2022-05-20 21:37:00,,0822.9,5.00,0.00,23.6,22.5,00.0,32.6,25.4,19.5,0000.0,0000.79,0000.64,0000.60
2022-05-20 21:38:00,,0823.0,5.01,0.00,23.5,22.5,00.0,32.6,25.4,19.5,0000.0,0000.81,0000.65,0000.62
2022-05-20 21:39:00,,0823.0,5.00,0.00,23.5,22.4,00.0,32.6,25.4,19.5,0000.0,0000.83,0000.66,0000.63
2022-05-20 21:40:00,,0823.0,5.00,0.00,23.5,22.4,00.0,32.6,25.4,19.5,0000.0,0000.87,0000.69,0000.64
2022-05-20 21:41:00,,0823.1,5.00,0.00,23.5,22.5,00.0,32.6,25.4,19.6,0000.0,0000.91,0000.70,0000.64
2022-05-20 21:42:00,,0823.1,5.00,0.00,23.5,22.5,00.0,32.6,25.4,19.6,0000.0,0000.93,0000.71,0000.65
2022-05-20 21:43:00,,0823.2,5.00,0.00,23.5,22.4,00.0,32.6,25.4,19.6,0000.0,0000.94,0000.72,0000.65
2022-05-20 21:44:00,,0823.2,5.00,0.00,23.5,22.4,00.0,32.5,25.4,19.6,0000.0,0000.98,0000.75,0000.66
2022-05-20 21:45:00,,0823.2,5.00,0.00,23.5,22.4,00.0,32.5,25.4,19.5,0000.0,0000.98,0000.75,0000.67
2022-05-20 21:46:00,,0823.2,5.00,0.00,23.5,22.4,00.0,32.5,25.3,19.6,0000.0,0000.99,0000.75,0000.67
2022-05-20 21:47:00,,0823.1,5.00,0.00,23.5,22.4,00.0,32.5,25.3,19.6,0000.0,0000.99,0000.75,0000.67
2022-05-20 21:48:00,,0823.0,5.01,0.00,23.5,22.4,00.0,32.5,25.3,19.6,0000.0,0001.00,0000.75,0000.66
2022-05-20 21:49:00,,0822.9,5.00,0.00,23.5,22.4,00.0,32.5,25.3,19.6,0000.0,0001.00,0000.75,0000.66
2022-05-20 21:50:00,,0823.0,5.00,0.00,23.5,22.4,00.0,32.5,25.3,19.6,0000.0,0000.98,0000.74,0000.65
2022-05-20 21:51:00,,0823.1,5.01,0.00,23.5,22.4,00.0,32.5,25.3,19.6,0000.0,0000.95,0000.72,0000.65
2022-05-20 21:52:00,,0823.1,4.99,0.00,23.5,22.4,00.0,32.5,25.3,19.6,0000.0,0000.94,0000.72,0000.64
2022-05-20 21:53:00,,0823.1,5.00,0.00,23.5,22.4,00.0,32.5,25.3,19.7,0000.0,0000.90,0000.70,0000.63
2022-05-20 21:54:00,,0823.2,4.99,0.00,23.5,22.4,00.0,32.5,25.3,19.7,0000.0,0000.89,0000.68,0000.62
2022-05-20 21:55:00,,0823.3,5.00,0.00,23.5,22.4,00.0,32.5,25.3,19.7,0000.0,0001.00,0000.69,0000.61
2022-05-20 21:56:00,,0823.2,5.02,0.00,23.4,22.4,00.0,32.5,25.3,19.7,0000.0,0001.00,0000.69,0000.62
2022-05-20 21:57:00,,0823.2,5.00,0.00,23.4,22.4,00.0,32.5,25.2,19.7,0000.0,0001.02,0000.70,0000.62
2022-05-20 21:58:00,,0823.3,5.00,0.00,23.4,22.4,00.0,32.4,25.2,19.7,0000.0,0001.02,0000.71,0000.63
2022-05-20 21:59:00,,0823.2,4.99,0.00,23.4,22.3,00.0,32.4,25.2,19.7,0000.0,0001.02,0000.72,0000.65
